Location: Chapel Hill
(35.9134°N, 79.0560°W)
Time: 06:40:06
(UTC-04:00)

ACS3 Solar Sail - Pass Details

Date: 25 April 2025
Orbit: 935 x 1009 km, 97.5° (Epoch: 13 May)

Event Time Altitude Azimuth Distance (km) Brightness Sun altitude
Rises 05:55:32 0° 32° (NNE) 3,598 5.8 -7.5°
Reaches altitude 10° 05:59:03 10° 53° (NE) 2,648 5.6 -6.8°
Maximum altitude 06:02:34 16° 90° (E) 2,234 4.9 -6.1°
Drops below altitude 10° 06:06:04 10° 127° (SE) 2,647 4.6 -5.5°
Sets 06:09:33 0° 148° (SSE) 3,595 4.9 -4.8°
